EDW211 LGSA-LSZH

Flight info

Callsign EDW211
Flight time 2h 42m
Altitude 24000
Route SOKRI J65 TRL M601 KFN M872 LATAN/N0465F320 DCT ROBOT/N0459F340 DCT OSDAX DCT AFCAM DCT ARSOB/N0398F180 L612 MASEG DCT BAKEP DCT NEVMO DCT OSKOR DCT EVRIP DCT CANNE Z651 KELIP
Aircraft A320/M-SDE2E3FGHIJ1RWXY/LB1

Departure

Time 2026-05-04 12:50
Airport Chania International Airport (LGSA)

Arrival

Time 2026-05-04 15:32
Airport Zürich Airport (LSZH)
Time Latitude Longitude Altitude Speed Heading
2026-05-04 12:10 35.53809 24.14258 557 ft 0 kts 21°
2026-05-04 12:38 35.53801 24.14254 561 ft 4 kts 22°
2026-05-04 12:38 35.53776 24.14240 559 ft 4 kts 28°
2026-05-04 12:38 35.53753 24.14222 567 ft 4 kts 41°
2026-05-04 12:38 35.53738 24.14199 567 ft 4 kts 88°
2026-05-04 12:39 35.53739 24.14185 565 ft 1 kts 112°
2026-05-04 12:39 35.53740 24.14184 565 ft 0 kts 112°
2026-05-04 12:42 35.53733 24.14205 562 ft 7 kts 111°
2026-05-04 12:43 35.53716 24.14256 560 ft 6 kts 111°
2026-05-04 12:43 35.53704 24.14294 560 ft 5 kts 111°
2026-05-04 12:43 35.53693 24.14327 562 ft 0 kts 111°
2026-05-04 12:43 35.53681 24.14352 556 ft 9 kts 130°
2026-05-04 12:44 35.53603 24.14352 556 ft 9 kts 194°
2026-05-04 12:44 35.53585 24.14352 558 ft 6 kts 158°
2026-05-04 12:44 35.53536 24.14435 564 ft 17 kts 113°
2026-05-04 12:44 35.53487 24.14593 563 ft 22 kts 110°
2026-05-04 12:45 35.53430 24.14770 562 ft 20 kts 110°
2026-05-04 12:45 35.53378 24.14933 558 ft 18 kts 112°
2026-05-04 12:45 35.53319 24.15101 564 ft 24 kts 113°
2026-05-04 12:45 35.53266 24.15255 559 ft 22 kts 112°
2026-05-04 12:46 35.53208 24.15442 557 ft 19 kts 110°
2026-05-04 12:46 35.53153 24.15619 558 ft 25 kts 111°
2026-05-04 12:46 35.53097 24.15789 562 ft 21 kts 112°
2026-05-04 12:46 35.53037 24.15974 560 ft 17 kts 112°
2026-05-04 12:47 35.52986 24.16134 564 ft 23 kts 111°
2026-05-04 12:47 35.52922 24.16330 558 ft 24 kts 112°
2026-05-04 12:47 35.52860 24.16512 557 ft 22 kts 113°
2026-05-04 12:47 35.52805 24.16675 559 ft 20 kts 112°
2026-05-04 12:48 35.52757 24.16815 563 ft 16 kts 113°
2026-05-04 12:48 35.52705 24.16875 557 ft 9 kts 179°
2026-05-04 12:48 35.52676 24.16868 557 ft 0 kts 193°
2026-05-04 12:48 35.52674 24.16867 557 ft 2 kts 193°
2026-05-04 12:49 35.52613 24.16832 568 ft 17 kts 224°
2026-05-04 12:49 35.52624 24.16666 560 ft 26 kts 291°
2026-05-04 12:49 35.52773 24.16225 565 ft 88 kts 294°
2026-05-04 12:49 35.53081 24.15310 560 ft 141 kts 293°
2026-05-04 12:50 35.53480 24.14079 835 ft 159 kts 291°
2026-05-04 12:50 35.53886 24.12806 1437 ft 160 kts 291°
2026-05-04 12:50 35.54316 24.11501 1994 ft 172 kts 294°
2026-05-04 12:50 35.54791 24.10068 2294 ft 194 kts 293°
2026-05-04 12:51 35.55321 24.08466 2711 ft 210 kts 293°
2026-05-04 12:51 35.55954 24.06851 3414 ft 208 kts 310°
2026-05-04 12:51 35.57129 24.05858 4075 ft 210 kts 346°
2026-05-04 12:51 35.58593 24.05846 4769 ft 213 kts
2026-05-04 12:52 35.60070 24.06085 5500 ft 213 kts
2026-05-04 12:52 35.61544 24.06322 6236 ft 213 kts
2026-05-04 12:52 35.62997 24.06457 6943 ft 211 kts 352°
2026-05-04 12:52 35.64466 24.05967 7240 ft 231 kts 331°
2026-05-04 12:53 35.65832 24.04760 7552 ft 250 kts 322°
2026-05-04 12:53 35.67227 24.03422 8185 ft 257 kts 322°
2026-05-04 12:53 35.68652 24.02055 8903 ft 262 kts 322°
2026-05-04 12:53 35.70102 24.00662 9622 ft 266 kts 323°
2026-05-04 12:54 35.71578 23.99254 10315 ft 271 kts 323°
2026-05-04 12:54 35.73134 23.97772 10538 ft 293 kts 323°
2026-05-04 12:54 35.74812 23.96176 10668 ft 316 kts 323°
2026-05-04 12:54 35.76590 23.94481 10794 ft 337 kts 322°
2026-05-04 12:55 35.78485 23.92670 11115 ft 350 kts 322°
2026-05-04 12:55 35.80419 23.90823 11708 ft 353 kts 322°
2026-05-04 12:55 35.82372 23.88956 12389 ft 355 kts 322°
2026-05-04 12:55 35.84327 23.87089 13064 ft 356 kts 323°
2026-05-04 12:56 35.86258 23.85247 13725 ft 358 kts 322°
2026-05-04 12:56 35.88272 23.83322 14352 ft 359 kts 322°
2026-05-04 12:56 35.90248 23.81427 14970 ft 360 kts 322°
2026-05-04 12:56 35.92225 23.79529 15591 ft 360 kts 322°
2026-05-04 12:57 35.94201 23.77627 16215 ft 360 kts 322°
2026-05-04 12:57 35.96181 23.75722 16837 ft 361 kts 322°
2026-05-04 12:57 35.98135 23.73844 17436 ft 361 kts 322°
2026-05-04 12:57 36.00124 23.71935 18007 ft 362 kts 322°
2026-05-04 12:58 36.02122 23.70017 18556 ft 363 kts 322°
2026-05-04 12:58 36.04123 23.68097 19001 ft 364 kts 322°
2026-05-04 12:58 36.06134 23.66169 19448 ft 366 kts 322°
2026-05-04 12:58 36.08156 23.64228 19879 ft 368 kts 322°
2026-05-04 12:59 36.10153 23.62304 20295 ft 369 kts 322°
2026-05-04 12:59 36.12183 23.60345 20699 ft 371 kts 322°
2026-05-04 12:59 36.14222 23.58377 21097 ft 373 kts 322°
2026-05-04 12:59 36.16273 23.56398 21474 ft 374 kts 322°
2026-05-04 13:00 36.18331 23.54411 21846 ft 376 kts 322°
2026-05-04 13:00 36.20402 23.52408 22205 ft 378 kts 322°
2026-05-04 13:00 36.22480 23.50396 22551 ft 380 kts 322°
2026-05-04 13:00 36.24568 23.48376 22898 ft 381 kts 322°
2026-05-04 13:01 36.26663 23.46350 23239 ft 383 kts 322°
2026-05-04 13:01 36.28765 23.44314 23579 ft 384 kts 322°
2026-05-04 13:01 36.30877 23.42265 23874 ft 386 kts 322°
2026-05-04 13:01 36.32995 23.40204 24095 ft 387 kts 322°
2026-05-04 13:02 36.35129 23.38127 24148 ft 392 kts 322°
2026-05-04 13:02 36.37298 23.36023 24155 ft 399 kts 322°
2026-05-04 13:02 36.39467 23.33921 24158 ft 401 kts 322°
2026-05-04 13:02 36.41672 23.31777 24157 ft 401 kts 322°
2026-05-04 13:03 36.43868 23.29635 24159 ft 402 kts 322°
2026-05-04 13:03 36.46067 23.27489 24165 ft 402 kts 322°
2026-05-04 13:03 36.48269 23.25339 24159 ft 402 kts 322°
2026-05-04 13:03 36.50469 23.23194 24152 ft 402 kts 322°
2026-05-04 13:04 36.52676 23.21041 24159 ft 403 kts 322°
2026-05-04 13:04 36.54881 23.18885 24149 ft 403 kts 322°
2026-05-04 13:04 36.57058 23.16751 24138 ft 403 kts 322°
2026-05-04 13:04 36.59260 23.14595 24136 ft 403 kts 322°
2026-05-04 13:05 36.61470 23.12430 24140 ft 404 kts 322°
2026-05-04 13:05 36.63660 23.10282 24233 ft 407 kts 322°
2026-05-04 13:05 36.65895 23.08091 24350 ft 410 kts 322°
2026-05-04 13:05 36.68149 23.05879 24464 ft 412 kts 322°
2026-05-04 13:06 36.70408 23.03665 24590 ft 413 kts 322°
2026-05-04 13:06 36.72669 23.01445 24750 ft 413 kts 322°
2026-05-04 13:06 36.74926 22.99219 24931 ft 413 kts 322°
2026-05-04 13:06 36.77176 22.96995 25123 ft 412 kts 322°
2026-05-04 13:07 36.79421 22.94776 25311 ft 411 kts 322°
2026-05-04 13:07 36.81637 22.92593 25495 ft 410 kts 322°
2026-05-04 13:07 36.83879 22.90382 25683 ft 409 kts 322°
2026-05-04 13:07 36.86110 22.88179 25881 ft 408 kts 322°
2026-05-04 13:08 36.88338 22.85978 26085 ft 408 kts 322°
2026-05-04 13:08 36.89810 22.84521 26231 ft 408 kts 322°
2026-05-04 13:08 36.92036 22.82313 26448 ft 407 kts 322°
2026-05-04 13:08 36.94251 22.80116 26662 ft 406 kts 322°
2026-05-04 13:09 36.96463 22.77919 26877 ft 405 kts 322°
2026-05-04 13:09 36.98674 22.75723 27098 ft 405 kts 322°
2026-05-04 13:09 37.00886 22.73527 27326 ft 404 kts 322°
2026-05-04 13:09 37.03055 22.71377 27552 ft 403 kts 322°
2026-05-04 13:10 37.05250 22.69200 27791 ft 402 kts 322°
2026-05-04 13:10 37.07440 22.67027 28044 ft 401 kts 322°
2026-05-04 13:10 37.09623 22.64854 28288 ft 400 kts 322°
2026-05-04 13:10 37.11798 22.62681 28499 ft 399 kts 322°
2026-05-04 13:11 37.13974 22.60506 28730 ft 399 kts 322°
2026-05-04 13:11 37.16140 22.58340 28970 ft 398 kts 322°
2026-05-04 13:11 37.18310 22.56173 29243 ft 397 kts 322°
2026-05-04 13:11 37.20443 22.54045 29493 ft 396 kts 322°
2026-05-04 13:12 37.22596 22.51893 29754 ft 395 kts 322°
2026-05-04 13:12 37.24740 22.49749 30033 ft 393 kts 322°
2026-05-04 13:12 37.26878 22.47604 30274 ft 393 kts 322°
2026-05-04 13:12 37.29010 22.45459 30483 ft 392 kts 322°
2026-05-04 13:13 37.31137 22.43321 30693 ft 391 kts 322°
2026-05-04 13:13 37.33265 22.41185 30897 ft 391 kts 322°
2026-05-04 13:13 37.35388 22.39052 31102 ft 390 kts 322°
2026-05-04 13:13 37.37501 22.36897 31309 ft 390 kts 319°
2026-05-04 13:14 37.39424 22.34490 31505 ft 391 kts 313°
2026-05-04 13:14 37.41070 22.31809 31712 ft 393 kts 307°
2026-05-04 13:14 37.42449 22.28829 31922 ft 395 kts 301°
2026-05-04 13:14 37.43676 22.25726 32129 ft 395 kts 301°
2026-05-04 13:15 37.44898 22.22635 32347 ft 394 kts 301°
2026-05-04 13:15 37.46121 22.19547 32564 ft 393 kts 301°
2026-05-04 13:15 37.47351 22.16445 32772 ft 393 kts 301°
2026-05-04 13:15 37.48571 22.13369 32983 ft 392 kts 301°
2026-05-04 13:16 37.49785 22.10302 33186 ft 391 kts 301°
2026-05-04 13:16 37.50980 22.07279 33368 ft 391 kts 301°
2026-05-04 13:16 37.52191 22.04210 33554 ft 390 kts 300°
2026-05-04 13:16 37.53396 22.01150 33734 ft 390 kts 300°
2026-05-04 13:17 37.54601 21.98089 33958 ft 389 kts 300°
2026-05-04 13:17 37.55805 21.95027 34110 ft 389 kts 300°
2026-05-04 13:17 37.57009 21.91968 34130 ft 389 kts 300°
2026-05-04 13:18 37.59408 21.85855 34136 ft 388 kts 300°
2026-05-04 13:18 37.61781 21.79785 34135 ft 388 kts 300°
2026-05-04 13:19 37.64170 21.73675 34146 ft 388 kts 300°
2026-05-04 13:19 37.66554 21.67559 34134 ft 388 kts 300°
2026-05-04 13:20 37.68923 21.61464 34138 ft 388 kts 300°
2026-05-04 13:20 37.71297 21.55335 34131 ft 388 kts 300°
2026-05-04 13:21 37.73676 21.49204 34142 ft 388 kts 300°
2026-05-04 13:21 37.76055 21.43066 34143 ft 389 kts 300°
2026-05-04 13:22 37.78411 21.36953 34149 ft 389 kts 300°
2026-05-04 13:22 37.80783 21.30798 34148 ft 389 kts 300°
2026-05-04 13:23 37.83153 21.24633 34151 ft 389 kts 300°
2026-05-04 13:23 37.85504 21.18501 34151 ft 389 kts 300°
2026-05-04 13:24 37.87870 21.12323 34146 ft 390 kts 300°
2026-05-04 13:24 37.90236 21.06143 34144 ft 390 kts 300°
2026-05-04 13:25 37.93779 20.96858 34137 ft 390 kts 300°
2026-05-04 13:25 37.96134 20.90656 34136 ft 391 kts 300°
2026-05-04 13:26 37.98477 20.84482 34132 ft 391 kts 300°
2026-05-04 13:26 38.00838 20.78253 34131 ft 392 kts 299°
2026-05-04 13:27 38.03197 20.72017 34134 ft 392 kts 299°
2026-05-04 13:27 38.05562 20.65749 34139 ft 393 kts 299°
2026-05-04 13:28 38.07902 20.59524 34144 ft 393 kts 299°
2026-05-04 13:28 38.10261 20.53249 34140 ft 393 kts 301°
2026-05-04 13:29 38.13483 20.47733 34143 ft 388 kts 317°
2026-05-04 13:29 38.17357 20.42932 34145 ft 389 kts 316°
2026-05-04 13:30 38.21233 20.38099 34140 ft 389 kts 316°
2026-05-04 13:30 38.25076 20.33285 34139 ft 390 kts 316°
2026-05-04 13:31 38.28946 20.28425 34139 ft 391 kts 316°
2026-05-04 13:31 38.32835 20.23554 34133 ft 391 kts 316°
2026-05-04 13:32 38.36695 20.18709 34132 ft 391 kts 316°
2026-05-04 13:32 38.40581 20.13825 34136 ft 392 kts 316°
2026-05-04 13:33 38.44468 20.08937 34131 ft 392 kts 316°
2026-05-04 13:33 38.48364 20.04028 34127 ft 393 kts 316°
2026-05-04 13:34 38.52233 19.99139 34128 ft 393 kts 316°
2026-05-04 13:34 38.56126 19.94205 34118 ft 394 kts 316°
2026-05-04 13:35 38.61976 19.86790 34127 ft 395 kts 316°
2026-05-04 13:36 38.65875 19.81832 34118 ft 395 kts 316°
2026-05-04 13:36 38.69754 19.76892 34120 ft 396 kts 316°
2026-05-04 13:37 38.73667 19.71905 34127 ft 396 kts 316°
2026-05-04 13:37 38.77556 19.66939 34125 ft 397 kts 316°
2026-05-04 13:38 38.81466 19.61930 34118 ft 397 kts 316°
2026-05-04 13:38 38.85375 19.56917 34119 ft 397 kts 316°
2026-05-04 13:39 38.89286 19.51899 34114 ft 397 kts 316°
2026-05-04 13:39 38.93181 19.46890 34114 ft 398 kts 316°
2026-05-04 13:40 38.97091 19.41852 34115 ft 398 kts 316°
2026-05-04 13:40 39.01019 19.36793 34117 ft 399 kts 315°
2026-05-04 13:41 39.04924 19.31760 34119 ft 399 kts 315°
2026-05-04 13:41 39.08844 19.26683 34117 ft 400 kts 315°
2026-05-04 13:42 39.14728 19.19031 34116 ft 400 kts 315°
2026-05-04 13:42 39.18646 19.13925 34112 ft 400 kts 315°
2026-05-04 13:43 39.22551 19.08852 34114 ft 401 kts 315°
2026-05-04 13:43 39.26478 19.03739 34108 ft 401 kts 315°
2026-05-04 13:44 39.30507 18.98749 34110 ft 401 kts 321°
2026-05-04 13:44 39.34816 18.94215 34111 ft 401 kts 321°
2026-05-04 13:45 39.39155 18.89650 34110 ft 402 kts 321°
2026-05-04 13:45 39.43501 18.85072 34110 ft 402 kts 321°
2026-05-04 13:46 39.47815 18.80507 34112 ft 402 kts 321°
2026-05-04 13:46 39.52152 18.75901 34108 ft 403 kts 321°
2026-05-04 13:47 39.56498 18.71299 34111 ft 403 kts 321°
2026-05-04 13:47 39.60833 18.66701 34109 ft 404 kts 320°
2026-05-04 13:48 39.65186 18.62060 34111 ft 404 kts 320°
2026-05-04 13:48 39.69538 18.57418 34111 ft 405 kts 320°
2026-05-04 13:49 39.73163 18.53554 34113 ft 405 kts 320°
2026-05-04 13:49 39.78238 18.48136 34115 ft 406 kts 320°
2026-05-04 13:50 39.81862 18.44244 34115 ft 406 kts 320°
2026-05-04 13:50 39.86220 18.39558 34117 ft 406 kts 320°
2026-05-04 13:51 39.90574 18.34874 34113 ft 406 kts 320°
2026-05-04 13:51 39.94942 18.30179 34112 ft 406 kts 320°
2026-05-04 13:52 40.01457 18.23145 34115 ft 407 kts 320°
2026-05-04 13:53 40.05824 18.18418 34116 ft 407 kts 320°
2026-05-04 13:53 40.10196 18.13683 34124 ft 408 kts 320°
2026-05-04 13:54 40.16728 18.06586 34123 ft 408 kts 320°
2026-05-04 13:55 40.23260 17.99472 34120 ft 408 kts 320°
2026-05-04 13:55 40.29826 17.92307 34112 ft 409 kts 320°
2026-05-04 13:56 40.34179 17.87548 34105 ft 410 kts 319°
2026-05-04 13:57 40.40756 17.80330 34100 ft 411 kts 319°
2026-05-04 13:58 40.49516 17.70701 34095 ft 411 kts 319°
2026-05-04 13:58 40.56105 17.63425 34093 ft 412 kts 319°
2026-05-04 13:59 40.60498 17.58572 34092 ft 412 kts 319°
2026-05-04 14:00 40.67102 17.51257 34086 ft 413 kts 319°
2026-05-04 14:00 40.73442 17.43607 34092 ft 413 kts 314°
2026-05-04 14:01 40.77449 17.38152 34091 ft 414 kts 314°
2026-05-04 14:02 40.83453 17.29966 34108 ft 415 kts 313°
2026-05-04 14:02 40.87472 17.24479 34111 ft 415 kts 313°
2026-05-04 14:03 40.91504 17.18974 34107 ft 416 kts 313°
2026-05-04 14:03 40.95507 17.13491 34109 ft 416 kts 313°
2026-05-04 14:04 41.01463 17.05302 34106 ft 418 kts 313°
2026-05-04 14:04 41.05476 16.99776 34112 ft 418 kts 313°
2026-05-04 14:05 41.11523 16.91404 34122 ft 419 kts 313°
2026-05-04 14:06 41.15572 16.85810 34126 ft 419 kts 313°
2026-05-04 14:06 41.19600 16.80235 34128 ft 420 kts 313°
2026-05-04 14:07 41.23643 16.74616 34123 ft 420 kts 313°
2026-05-04 14:07 41.27698 16.68984 34119 ft 421 kts 313°
2026-05-04 14:08 41.31724 16.63370 34114 ft 422 kts 313°
2026-05-04 14:08 41.35767 16.57707 34110 ft 422 kts 313°
2026-05-04 14:09 41.41903 16.49271 34098 ft 423 kts 314°
2026-05-04 14:10 41.48083 16.40836 34097 ft 424 kts 313°
2026-05-04 14:10 41.52187 16.35189 34094 ft 424 kts 313°
2026-05-04 14:11 41.56309 16.29527 34090 ft 425 kts 313°
2026-05-04 14:11 41.62460 16.21047 34087 ft 425 kts 313°
2026-05-04 14:12 41.66575 16.15355 34085 ft 426 kts 313°
2026-05-04 14:13 41.72763 16.06772 34099 ft 427 kts 313°
2026-05-04 14:13 41.76889 16.01027 34106 ft 428 kts 313°
2026-05-04 14:14 41.80998 15.95298 34113 ft 429 kts 313°
2026-05-04 14:14 41.87310 15.86730 34120 ft 430 kts 314°
2026-05-04 14:15 41.95801 15.75399 34118 ft 432 kts 314°
2026-05-04 14:16 42.02176 15.66798 34113 ft 432 kts 314°
2026-05-04 14:17 42.08517 15.58204 34106 ft 432 kts 314°
2026-05-04 14:18 42.14878 15.49558 34100 ft 432 kts 314°
2026-05-04 14:19 42.23333 15.38049 34096 ft 432 kts 314°
2026-05-04 14:19 42.27574 15.32267 34093 ft 433 kts 314°
2026-05-04 14:20 42.31809 15.26466 34091 ft 433 kts 314°
2026-05-04 14:20 42.36040 15.20658 34090 ft 433 kts 314°
2026-05-04 14:21 42.42370 15.11950 34083 ft 434 kts 314°
2026-05-04 14:21 42.46617 15.06102 34086 ft 435 kts 314°
2026-05-04 14:22 42.50866 15.00226 34079 ft 436 kts 313°
2026-05-04 14:22 42.55117 14.94330 34073 ft 437 kts 313°
2026-05-04 14:23 42.61491 14.85473 34072 ft 437 kts 313°
2026-05-04 14:24 42.65724 14.79585 34070 ft 438 kts 313°
2026-05-04 14:24 42.69982 14.73652 34077 ft 438 kts 313°
2026-05-04 14:25 42.74246 14.67694 34070 ft 439 kts 313°
2026-05-04 14:25 42.80630 14.58740 34079 ft 439 kts 313°
2026-05-04 14:26 42.84870 14.52788 34075 ft 439 kts 313°
2026-05-04 14:26 42.89128 14.46804 34080 ft 439 kts 313°
2026-05-04 14:27 42.93381 14.40802 34082 ft 439 kts 313°
2026-05-04 14:27 42.97594 14.34829 34082 ft 439 kts 313°
2026-05-04 14:28 43.01840 14.28810 34085 ft 439 kts 313°
2026-05-04 14:28 43.06081 14.22793 34090 ft 439 kts 313°
2026-05-04 14:29 43.14532 14.10764 34087 ft 439 kts 312°
2026-05-04 14:30 43.18078 14.05699 34086 ft 439 kts 312°
2026-05-04 14:31 43.24401 13.96618 34083 ft 440 kts 312°
2026-05-04 14:32 43.32885 13.84428 34082 ft 442 kts 312°
2026-05-04 14:32 43.37127 13.78313 34082 ft 442 kts 312°
2026-05-04 14:33 43.41342 13.72208 34083 ft 443 kts 312°
2026-05-04 14:33 43.45587 13.66054 34083 ft 443 kts 312°
2026-05-04 14:34 43.49837 13.59884 34084 ft 443 kts 312°
2026-05-04 14:34 43.54076 13.53712 34086 ft 443 kts 312°
2026-05-04 14:35 43.58321 13.47524 34082 ft 443 kts 311°
2026-05-04 14:35 43.62530 13.41363 34084 ft 443 kts 311°
2026-05-04 14:36 43.66777 13.35154 34079 ft 444 kts 311°
2026-05-04 14:36 43.71020 13.28938 34085 ft 444 kts 311°
2026-05-04 14:37 43.75242 13.22745 34084 ft 444 kts 311°
2026-05-04 14:37 43.79481 13.16496 34085 ft 444 kts 311°
2026-05-04 14:38 43.83711 13.10233 34089 ft 444 kts 311°
2026-05-04 14:38 43.87914 13.03995 34090 ft 444 kts 311°
2026-05-04 14:39 43.92140 12.97718 34095 ft 444 kts 311°
2026-05-04 14:39 43.96356 12.91449 34097 ft 444 kts 311°
2026-05-04 14:40 44.02654 12.82068 34095 ft 444 kts 311°
2026-05-04 14:40 44.06866 12.75767 34093 ft 444 kts 311°
2026-05-04 14:41 44.11041 12.69509 34093 ft 443 kts 311°
2026-05-04 14:42 44.19392 12.56865 34094 ft 442 kts 309°
2026-05-04 14:42 44.23381 12.50333 34119 ft 442 kts 307°
2026-05-04 14:43 44.27282 12.43767 34122 ft 441 kts 308°
2026-05-04 14:43 44.31235 12.37188 34121 ft 442 kts 308°
2026-05-04 14:44 44.35213 12.30625 34111 ft 442 kts 308°
2026-05-04 14:44 44.39182 12.24065 34104 ft 442 kts 308°
2026-05-04 14:45 44.43125 12.17524 34095 ft 442 kts 308°
2026-05-04 14:45 44.47087 12.10942 34079 ft 442 kts 308°
2026-05-04 14:46 44.51048 12.04342 34073 ft 441 kts 308°
2026-05-04 14:46 44.54993 11.97729 34076 ft 441 kts 307°
2026-05-04 14:47 44.58913 11.91157 34073 ft 441 kts 307°
2026-05-04 14:47 44.62659 11.84866 34068 ft 441 kts 307°
2026-05-04 14:48 44.66589 11.78246 34066 ft 441 kts 307°
2026-05-04 14:48 44.70529 11.71596 34057 ft 441 kts 307°
2026-05-04 14:49 44.74463 11.64950 34057 ft 441 kts 307°
2026-05-04 14:49 44.78360 11.58341 34066 ft 441 kts 307°
2026-05-04 14:50 44.82283 11.51676 34065 ft 441 kts 307°
2026-05-04 14:50 44.86198 11.45008 34062 ft 441 kts 307°
2026-05-04 14:51 44.90085 11.38369 34063 ft 441 kts 307°
2026-05-04 14:51 44.94043 11.31737 34069 ft 441 kts 308°
2026-05-04 14:52 44.98044 11.25161 34070 ft 441 kts 308°
2026-05-04 14:52 45.02005 11.18597 34076 ft 441 kts 308°
2026-05-04 14:53 45.05973 11.11971 34081 ft 441 kts 308°
2026-05-04 14:53 45.09934 11.05338 34084 ft 441 kts 307°
2026-05-04 14:54 45.13887 10.98692 34080 ft 441 kts 307°
2026-05-04 14:54 45.17815 10.92090 34087 ft 441 kts 307°
2026-05-04 14:55 45.21769 10.85433 34082 ft 440 kts 307°
2026-05-04 14:55 45.25718 10.78769 34061 ft 440 kts 307°
2026-05-04 14:56 45.29657 10.72098 34069 ft 440 kts 307°
2026-05-04 14:56 45.33571 10.65465 34068 ft 440 kts 307°
2026-05-04 14:57 45.37502 10.58771 34066 ft 440 kts 307°
2026-05-04 14:57 45.41429 10.52062 34058 ft 440 kts 307°
2026-05-04 14:58 45.45353 10.45364 34067 ft 440 kts 307°
2026-05-04 14:58 45.49253 10.38697 34064 ft 440 kts 307°
2026-05-04 14:59 45.53171 10.31972 34069 ft 440 kts 307°
2026-05-04 15:00 45.59030 10.21858 34067 ft 440 kts 306°
2026-05-04 15:00 45.62926 10.15104 34069 ft 440 kts 306°
2026-05-04 15:01 45.66292 10.07943 34069 ft 435 kts 295°
2026-05-04 15:01 45.67690 10.04101 34080 ft 435 kts 295°
2026-05-04 15:01 45.70016 9.97711 34079 ft 435 kts 295°
2026-05-04 15:02 45.72182 9.91750 34081 ft 436 kts 295°
2026-05-04 15:02 45.74983 9.84042 34079 ft 436 kts 295°
2026-05-04 15:03 45.77790 9.76301 34080 ft 437 kts 295°
2026-05-04 15:03 45.80570 9.68597 34079 ft 437 kts 294°
2026-05-04 15:04 45.83362 9.60824 34084 ft 438 kts 294°
2026-05-04 15:04 45.86350 9.53185 34083 ft 441 kts 301°
2026-05-04 15:05 45.89800 9.45894 34087 ft 441 kts 301°
2026-05-04 15:05 45.93236 9.38575 34086 ft 442 kts 301°
2026-05-04 15:06 45.96645 9.31281 34092 ft 442 kts 301°
2026-05-04 15:07 46.01796 9.20240 34095 ft 443 kts 300°
2026-05-04 15:07 46.05230 9.12860 34084 ft 443 kts 300°
2026-05-04 15:08 46.08666 9.05457 34081 ft 444 kts 300°
2026-05-04 15:08 46.12081 8.98070 34083 ft 445 kts 300°
2026-05-04 15:09 46.16353 8.91560 34076 ft 454 kts 321°
2026-05-04 15:09 46.19095 8.89218 34075 ft 460 kts 332°
2026-05-04 15:09 46.22110 8.87620 34071 ft 465 kts 342°
2026-05-04 15:10 46.31771 8.85852 34073 ft 469 kts 351°
2026-05-04 15:11 46.40449 8.84549 34077 ft 470 kts 351°
2026-05-04 15:11 46.46981 8.83563 34079 ft 471 kts 351°
2026-05-04 15:11 46.50242 8.83072 33845 ft 472 kts 351°
2026-05-04 15:12 46.53509 8.82581 33574 ft 472 kts 351°
2026-05-04 15:12 46.56780 8.82088 33297 ft 473 kts 351°
2026-05-04 15:12 46.60065 8.81589 33023 ft 474 kts 351°
2026-05-04 15:12 46.63357 8.81088 32758 ft 476 kts 352°
2026-05-04 15:13 46.66656 8.80587 32487 ft 477 kts 352°
2026-05-04 15:13 46.69926 8.80089 32219 ft 477 kts 352°
2026-05-04 15:13 46.73233 8.79586 31958 ft 478 kts 352°
2026-05-04 15:13 46.76551 8.79085 31691 ft 479 kts 352°
2026-05-04 15:14 46.79874 8.78583 31437 ft 480 kts 352°
2026-05-04 15:14 46.83203 8.78077 31172 ft 480 kts 352°
2026-05-04 15:14 46.86530 8.77570 30733 ft 480 kts 352°
2026-05-04 15:14 46.89845 8.77064 29453 ft 487 kts 352°
2026-05-04 15:15 46.93226 8.76547 28282 ft 488 kts 352°
2026-05-04 15:15 46.96603 8.76029 27155 ft 487 kts 351°
2026-05-04 15:15 46.99985 8.75502 25877 ft 492 kts 352°
2026-05-04 15:16 47.06844 8.74401 23342 ft 497 kts 351°
2026-05-04 15:16 47.10274 8.73716 22288 ft 493 kts 349°
2026-05-04 15:16 47.16939 8.71962 20607 ft 478 kts 347°
2026-05-04 15:17 47.20147 8.71025 19636 ft 461 kts 346°
2026-05-04 15:17 47.26154 8.69191 18051 ft 427 kts 342°
2026-05-04 15:17 47.28955 8.67707 17252 ft 426 kts 334°
2026-05-04 15:18 47.31641 8.65873 16533 ft 424 kts 333°
2026-05-04 15:18 47.34315 8.64043 15817 ft 423 kts 333°
2026-05-04 15:18 47.36975 8.62207 15116 ft 421 kts 332°
2026-05-04 15:19 47.41899 8.57594 13698 ft 417 kts 317°
2026-05-04 15:19 47.43872 8.54476 12963 ft 413 kts 305°
2026-05-04 15:19 47.46336 8.47055 11636 ft 400 kts 283°
2026-05-04 15:20 47.46821 8.43062 11240 ft 388 kts 276°
2026-05-04 15:20 47.47182 8.39259 11075 ft 358 kts 276°
2026-05-04 15:20 47.47525 8.35753 10940 ft 329 kts 276°
2026-05-04 15:20 47.47846 8.32520 10801 ft 307 kts 276°
2026-05-04 15:21 47.48147 8.29448 10499 ft 299 kts 276°
2026-05-04 15:21 47.48432 8.26470 10260 ft 294 kts 276°
2026-05-04 15:21 47.48996 8.20507 9855 ft 292 kts 276°
2026-05-04 15:22 47.49277 8.17530 9729 ft 292 kts 276°
2026-05-04 15:22 47.49556 8.14558 9595 ft 291 kts 276°
2026-05-04 15:22 47.50218 8.08686 9329 ft 284 kts 290°
2026-05-04 15:23 47.51290 8.06357 9192 ft 272 kts 319°
2026-05-04 15:23 47.52897 8.05029 8831 ft 261 kts 346°
2026-05-04 15:23 47.54678 8.04908 8308 ft 256 kts 13°
2026-05-04 15:23 47.56292 8.05923 7756 ft 251 kts 39°
2026-05-04 15:24 47.57964 8.10211 6688 ft 245 kts 88°
2026-05-04 15:24 47.57117 8.14832 5864 ft 233 kts 117°
2026-05-04 15:25 47.56442 8.17004 5439 ft 230 kts 110°
2026-05-04 15:25 47.56094 8.19315 5121 ft 229 kts 95°
2026-05-04 15:25 47.56134 8.21603 5064 ft 216 kts 81°
2026-05-04 15:26 47.57050 8.25567 4985 ft 190 kts 66°
2026-05-04 15:26 47.57566 8.27278 4900 ft 177 kts 66°
2026-05-04 15:26 47.58496 8.30378 4779 ft 156 kts 65°
2026-05-04 15:27 47.58934 8.31838 4713 ft 153 kts 65°
2026-05-04 15:27 47.59740 8.34702 4608 ft 150 kts 77°
2026-05-04 15:28 47.59506 8.37743 4414 ft 153 kts 117°
2026-05-04 15:28 47.58806 8.38901 4252 ft 153 kts 135°
2026-05-04 15:28 47.57300 8.41112 3844 ft 152 kts 137°
2026-05-04 15:29 47.56530 8.42190 3644 ft 153 kts 138°
2026-05-04 15:30 47.53440 8.46444 2841 ft 150 kts 139°
2026-05-04 15:30 47.51107 8.49640 2226 ft 152 kts 139°
2026-05-04 15:31 47.49567 8.51747 1812 ft 152 kts 138°
2026-05-04 15:31 47.48787 8.52813 1619 ft 153 kts 138°
2026-05-04 15:32 47.46942 8.55318 1396 ft 53 kts 137°
2026-05-04 15:32 47.46626 8.55666 1405 ft 25 kts 163°
2026-05-04 15:33 47.46442 8.55728 1400 ft 11 kts 168°
2026-05-04 15:34 47.46169 8.56000 1401 ft 22 kts 177°
2026-05-04 15:34 47.46024 8.55984 1401 ft 20 kts 185°
2026-05-04 15:34 47.45825 8.55901 1398 ft 0 kts 199°
2026-05-04 15:35 47.45767 8.55880 1398 ft 8 kts 191°
2026-05-04 15:35 47.45696 8.55866 1401 ft 13 kts 185°
2026-05-04 15:35 47.45592 8.55851 1397 ft 11 kts 186°
2026-05-04 15:36 47.45508 8.55708 1403 ft 14 kts 275°
2026-05-04 15:36 47.45512 8.55645 1397 ft 2 kts 275°
2026-05-04 15:36 47.45516 8.55600 1397 ft 7 kts 277°
2026-05-04 15:37 47.45524 8.55503 1397 ft 12 kts 275°
2026-05-04 15:37 47.45465 8.55451 1398 ft 3 kts 158°
2026-05-04 15:37 47.45432 8.55471 1398 ft 7 kts 158°
2026-05-04 15:37 47.45378 8.55505 1397 ft 11 kts 155°
2026-05-04 15:38 47.45298 8.55564 1405 ft 15 kts 147°
2026-05-04 15:38 47.45265 8.55724 1397 ft 19 kts 96°
2026-05-04 15:38 47.45249 8.55816 1401 ft 7 kts 142°
2026-05-04 15:38 47.45197 8.55808 1400 ft 4 kts 188°
2026-05-04 15:39 47.45171 8.55804 1397 ft 1 kts 185°
2026-05-04 15:39 47.45165 8.55803 1397 ft 0 kts 185°